RH
29 25 24 26 32 36 35 35 34 31 32 36 42 47 45 45 47 46 47 48 47 52 56 54 57 59 55 53 53 53 51 48 46 45 40 35 36 39 40 40 44 48 46 40 40 44 49 53 53 51 50 51 51 52 52 52 54 55 52 51 52 51 48 42 34 31 27 24 22 22 22 21 22 23 24 25 25 25 25 26 27 27 28 27 26 25 25
32 29 26 22 26 32 33 32 30 28 28 29 35 40 41 44 46 43 45 50 50 55 61 60 62 64 61 59 60 59 54 49 48 47 45 44 43 42 42 42 44 49 48 42 41 47 53 57 56 53 51 51 50 51 51 51 52 52 51 50 50 51 51 48 42 37 34 30 26 24 23 22 22 23 24 24 24 24 24 25 27 27 28 28 27 26 25
38 36 32 26 25 27 29 30 29 27 26 25 29 35 40 47 48 43 44 48 48 53 59 61 64 65 64 65 65 61 56 52 49 49 50 51 50 48 47 45 45 48 50 50 49 52 58 62 62 57 52 50 50 50 50 51 51 51 50 49 49 51 52 51 47 43 39 35 31 27 24 23 22 22 23 24 24 24 23 23 26 27 27 27 27 26 25
46 39 37 33 30 27 25 25 26 27 27 26 27 31 36 45 48 47 48 47 46 52 58 62 65 64 65 68 64 58 56 55 52 51 52 53 51 49 50 50 50 50 51 54 56 58 61 64 65 63 57 54 56 55 51 50 50 50 49 49 49 50 53 53 50 46 43 39 36 32 27 25 23 22 23 24 24 24 23 23 23 25 27 27 26 26 25
51 43 41 38 35 33 28 23 21 24 26 25 26 27 32 42 48 47 46 45 47 52 58 63 67 66 65 66 64 61 60 58 54 50 48 49 49 50 52 53 54 53 53 53 56 60 64 63 63 64 62 60 61 60 53 51 53 53 50 49 50 50 51 53 52 49 46 41 38 35 31 28 25 23 23 24 24 24 23 23 23 24 25 25 26 25 25
58 50 46 44 44 41 33 25 21 21 22 23 26 25 27 37 47 45 41 41 45 53 57 63 68 68 64 62 63 65 65 60 56 50 45 45 48 50 50 51 53 53 52 52 53 59 63 60 57 58 59 60 63 64 62 60 61 60 54 49 49 49 50 52 52 51 48 44 41 38 35 31 28 26 24 24 24 24 23 23 23 23 24 24 24 25 24
56 52 54 58 56 45 36 31 25 23 22 23 25 23 22 33 43 41 38 39 42 49 55 59 64 67 65 62 63 66 66 61 58 53 47 46 49 50 49 52 54 50 46 45 46 49 53 54 54 52 52 53 54 58 64 65 63 62 59 53 48 47 48 50 51 51 50 47 45 42 39 35 32 28 26 24 24 24 23 24 23 23 24 24 24 24 23
54 56 61 66 59 45 37 34 30 30 32 31 31 28 24 30 39 39 41 46 44 44 51 58 64 66 63 62 66 69 66 61 60 57 51 48 52 53 50 51 52 48 45 43 41 39 42 48 52 50 49 53 52 52 57 58 57 59 60 56 50 46 46 48 49 51 50 49 48 46 43 40 37 33 30 27 24 24 23 23 24 23 23 24 24 24 23
52 55 54 53 52 47 41 39 37 39 41 42 47 46 36 33 40 43 44 48 48 48 55 62 61 59 61 66 72 74 69 63 60 57 53 49 50 52 52 50 49 48 45 43 42 40 39 45 50 50 50 54 56 54 53 51 50 52 54 54 50 45 45 47 47 50 51 50 50 50 47 44 41 39 36 32 28 26 25 24 25 25 24 25 25 25 24
53 56 52 49 54 52 45 46 47 45 44 44 50 55 46 38 42 44 40 41 45 50 56 57 53 52 61 68 71 72 70 64 58 54 52 49 47 49 51 50 47 46 44 42 40 38 36 39 46 51 53 53 54 54 52 48 46 46 47 49 48 44 44 46 46 48 50 51 51 52 50 48 44 43 41 38 33 30 27 26 26 26 26 25 25 25 24
59 63 59 52 50 46 46 54 55 49 49 47 46 50 51 45 41 41 39 40 41 42 44 45 45 50 61 67 68 68 67 62 57 53 51 49 48 47 49 50 49 46 44 41 37 35 35 35 40 47 50 50 49 49 48 43 41 41 44 47 46 42 44 46 46 48 50 51 52 53 52 51 49 47 45 42 39 35 30 29 29 28 28 26 25 24 24
64 67 68 59 45 40 48 59 59 55 55 54 52 55 58 54 47 43 42 42 40 37 37 39 43 50 60 67 67 63 61 58 53 50 48 48 46 46 46 48 48 47 45 41 38 36 36 36 38 42 43 43 44 45 44 40 36 36 40 44 41 39 43 46 47 48 50 52 53 54 54 54 53 50 48 46 44 40 36 33 31 29 29 29 28 26 25
66 67 73 65 49 46 53 55 55 56 54 54 59 62 62 61 55 48 45 43 40 37 37 40 45 49 53 60 63 60 56 55 52 48 47 47 45 45 45 45 45 45 44 43 40 38 37 38 40 41 41 41 42 42 40 37 32 31 37 40 37 36 40 45 46 48 51 53 54 55 56 57 56 54 51 50 48 45 41 38 33 30 29 29 29 28 26
70 68 70 64 56 59 60 53 52 56 53 55 62 65 65 66 61 54 50 47 44 43 42 42 46 48 46 49 56 57 55 56 55 51 49 48 46 45 44 43 43 43 41 41 40 38 38 39 41 41 41 41 42 40 38 36 33 33 36 38 36 35 38 42 44 47 50 52 54 55 56 57 57 54 51 51 51 49 46 42 37 31 29 29 28 27 26
76 71 71 69 66 65 59 55 58 60 60 64 67 66 67 67 65 61 58 54 50 48 46 43 42 45 46 45 48 50 50 54 55 51 48 48 48 47 44 43 44 43 41 40 39 38 38 39 41 42 42 42 41 40 39 37 36 38 38 37 36 36 37 40 43 46 49 51 53 54 56 57 58 55 52 53 53 52 49 44 39 34 30 28 28 27 26
84 80 78 76 75 71 64 64 67 66 67 69 67 63 62 62 62 63 61 58 55 50 46 44 41 43 46 45 43 43 44 49 51 47 44 46 48 47 45 43 43 44 43 41 37 37 38 39 39 39 40 41 40 38 38 36 38 43 44 41 38 37 37 38 42 45 48 51 53 54 55 57 58 55 51 52 55 54 52 47 40 34 30 29 29 28 26
86 85 81 79 79 75 71 70 70 68 69 71 67 63 60 59 61 62 59 58 58 53 48 46 46 46 46 46 44 41 42 46 47 43 41 45 48 47 44 43 44 43 43 41 38 37 38 37 34 34 35 37 36 36 36 35 38 46 48 42 38 38 38 39 41 44 47 50 51 53 54 56 57 55 51 52 55 56 54 49 42 34 29 28 29 29 27
79 78 77 79 79 76 72 72 72 71 72 71 68 64 60 57 59 60 58 56 56 55 53 51 52 52 50 47 47 45 45 47 46 40 40 44 47 47 44 43 44 43 42 41 39 38 39 36 33 32 31 31 31 31 32 33 38 47 49 41 37 37 38 39 40 42 45 48 49 51 53 54 56 55 52 53 56 56 54 50 41 33 29 28 30 30 28
80 76 74 77 78 76 73 73 74 75 73 69 65 63 61 58 56 57 59 58 55 53 53 52 55 57 55 50 48 48 49 49 45 40 42 43 45 46 44 43 44 43 42 41 39 38 39 37 35 34 33 30 29 28 28 30 36 45 48 41 36 35 36 38 40 40 43 46 47 49 51 51 51 52 51 53 55 55 51 46 39 33 30 30 30 30 28
81 77 72 72 73 75 75 77 78 77 73 67 61 58 59 58 54 53 57 60 57 52 50 50 53 58 59 55 50 49 52 51 45 41 41 41 42 45 47 47 45 42 41 42 41 40 39 38 38 39 36 33 30 28 27 28 32 41 45 40 34 34 35 37 38 38 41 44 45 48 50 48 47 48 50 52 52 47 40 35 33 32 30 29 28 27 25
78 77 75 73 71 70 71 74 77 78 76 70 62 58 57 57 55 53 54 60 61 57 51 49 51 55 59 59 54 53 55 55 50 47 45 44 46 50 53 53 49 44 41 42 42 41 40 40 42 43 40 38 34 31 31 32 34 39 42 38 34 33 35 35 35 36 39 42 44 47 49 47 46 47 48 49 48 40 31 28 28 28 26 24 22 22 23
77 78 82 83 80 75 72 70 70 71 74 73 68 63 60 58 58 57 56 60 65 63 57 53 51 52 57 61 59 56 58 60 58 55 54 54 56 57 59 61 60 53 46 44 43 43 43 43 45 45 44 42 38 36 37 39 40 42 43 38 34 33 33 34 34 35 37 40 42 46 47 46 45 45 47 49 47 39 33 30 29 26 24 23 22 23 25
80 80 86 90 90 88 84 79 74 71 70 73 73 68 63 62 63 63 61 61 66 67 64 58 54 53 57 62 62 60 59 61 61 61 60 59 58 59 60 64 66 63 57 50 46 44 45 48 48 47 46 45 41 38 40 42 43 44 43 40 38 35 32 31 32 34 36 38 41 44 45 45 43 43 47 50 47 42 39 38 36 33 31 31 30 30 30
80 83 89 93 94 94 94 89 84 77 74 75 76 70 64 63 66 67 66 64 66 68 67 64 61 58 58 63 65 63 61 61 61 61 60 58 58 61 65 65 66 67 64 57 51 47 48 51 52 49 49 49 45 42 43 45 45 44 41 39 37 34 31 31 32 33 35 38 41 43 43 42 41 43 48 49 46 45 46 45 42 40 38 37 36 36 34
77 83 91 95 94 95 97 95 91 87 81 77 76 72 66 64 66 69 70 67 67 69 69 68 67 64 62 65 69 68 66 64 62 61 59 56 56 62 70 70 68 68 65 60 57 56 53 53 54 53 52 53 52 49 47 48 48 45 43 42 41 38 35 35 37 37 38 40 41 42 41 41 40 43 46 45 43 46 48 46 44 42 40 39 39 39 38
71 77 87 96 96 94 96 98 96 95 90 84 80 77 72 68 67 69 71 70 71 73 72 71 70 67 65 68 74 74 72 71 70 66 62 59 57 61 69 74 74 74 69 63 63 65 59 54 54 53 52 54 56 55 51 50 49 48 46 47 50 51 48 46 48 49 47 44 41 41 40 39 40 43 44 42 41 45 48 48 46 43 41 40 40 40 41
67 69 78 90 96 96 96 97 98 97 92 86 83 81 78 74 71 70 70 71 73 74 74 73 72 69 68 71 76 76 73 74 77 74 70 66 66 67 71 74 76 78 75 69 69 73 69 61 55 52 50 53 56 55 51 49 49 50 49 50 51 54 54 54 55 58 58 52 45 41 39 39 41 43 43 40 41 45 48 50 49 48 44 42 42 42 43
62 65 71 80 90 95 95 96 97 97 91 85 82 83 83 81 77 74 73 72 72 72 72 72 72 72 74 77 77 73 71 75 80 78 73 71 73 73 75 76 77 78 77 73 73 78 78 70 61 55 54 57 58 56 54 53 53 55 55 55 51 51 54 58 59 62 65 63 53 43 39 41 44 44 42 42 44 47 50 52 52 51 48 46 44 45 46
58 63 69 74 80 89 94 95 95 97 95 89 85 85 85 84 80 78 76 75 72 70 70 71 72 75 80 82 78 72 72 77 81 78 74 74 75 76 78 79 80 81 79 75 74 78 80 76 68 62 61 61 62 60 59 59 59 59 59 59 56 52 54 59 61 63 70 73 63 50 44 44 47 47 44 45 48 50 51 51 51 51 53 52 51 50 50
57 59 66 69 72 80 89 94 95 96 97 95 92 88 85 83 81 80 79 77 74 72 72 73 77 81 84 85 82 76 75 77 77 75 74 76 77 78 79 78 78 82 83 80 76 76 79 78 75 72 69 67 66 65 62 59 60 63 65 65 60 54 55 61 63 64 72 78 74 65 55 51 50 51 50 53 55 54 52 51 53 56 60 60 58 56 55
57 57 59 61 63 70 80 90 95 96 96 97 96 91 85 83 82 81 80 79 76 75 74 76 80 84 86 86 84 81 79 78 75 74 75 76 77 80 83 82 80 82 85 84 81 78 78 78 77 78 78 74 70 68 65 62 63 68 70 65 58 53 58 66 70 71 75 78 78 75 70 63 58 57 57 58 57 55 53 54 59 62 65 65 64 62 60
56 59 58 55 55 60 68 79 89 95 97 97 97 94 89 86 83 82 81 79 77 76 77 78 81 85 86 86 84 82 81 79 77 78 81 80 78 80 83 82 81 81 83 85 84 81 78 77 76 77 82 83 76 70 67 63 62 65 68 67 60 55 57 65 72 76 78 78 77 77 75 70 65 60 58 56 56 56 57 60 63 66 67 68 67 65 64
53 58 59 54 51 51 57 67 79 90 96 99 98 96 93 90 86 83 82 82 80 78 77 80 84 86 85 84 84 84 84 82 79 81 86 85 82 82 82 79 77 79 82 85 86 82 78 77 75 75 82 87 84 77 72 67 64 64 68 70 67 61 57 59 65 71 75 76 75 72 69 66 62 57 53 52 54 57 60 61 62 65 66 65 66 67 68
52 55 57 56 52 48 50 58 69 82 93 99 99 97 95 94 90 85 83 85 86 84 83 84 88 89 87 85 84 85 86 84 81 83 88 88 86 85 84 80 77 77 80 84 86 84 80 77 76 75 79 85 86 82 76 71 67 65 66 68 69 68 64 62 63 67 72 76 77 74 70 66 63 59 55 55 58 60 60 59 60 62 63 63 65 67 68
52 54 55 55 53 49 48 53 63 75 87 96 99 97 96 97 95 89 86 87 91 92 92 91 93 94 91 87 85 86 86 85 84 84 88 90 91 90 86 81 80 81 81 81 84 86 84 80 77 78 81 83 84 83 79 74 70 66 65 67 70 73 72 70 69 71 73 75 76 75 71 69 69 69 67 65 65 64 62 60 61 63 63 63 63 64 64
49 52 53 53 53 50 47 49 59 71 82 92 99 99 97 98 98 93 89 90 92 95 96 95 96 98 95 91 88 89 88 86 85 84 84 88 92 92 88 83 82 84 85 83 82 84 85 81 78 80 83 83 82 82 81 79 75 70 68 67 68 71 74 76 78 77 75 73 74 74 72 71 73 76 75 72 69 65 62 62 64 64 63 62 61 60 58
47 48 49 50 51 52 49 46 52 64 74 86 96 99 98 98 100 97 94 93 93 94 96 97 97 99 99 95 94 95 92 88 87 86 84 83 84 86 85 84 81 82 86 87 85 86 87 83 79 79 82 83 82 82 82 80 78 74 71 68 68 71 73 75 76 78 78 76 76 77 75 73 74 76 75 73 70 66 62 61 61 60 59 58 57 57 55
48 46 46 46 47 50 51 49 50 56 64 77 90 97 98 99 100 100 98 97 97 95 95 96 96 97 98 98 97 98 97 94 92 89 84 79 78 78 82 84 85 85 87 89 88 88 88 85 81 78 78 79 81 83 82 80 78 75 72 69 69 71 72 72 74 77 80 80 80 80 79 76 74 73 71 69 67 64 61 60 59 58 57 55 54 54 54
49 46 46 46 44 46 50 52 51 52 57 68 82 94 98 98 99 100 100 100 100 99 98 97 97 97 97 97 96 96 96 96 96 92 86 81 79 77 78 82 87 89 90 89 88 87 87 86 84 81 78 78 81 83 83 80 77 75 73 72 71 70 70 70 72 75 78 80 79 78 79 79 76 72 69 67 66 63 60 60 60 59 57 57 57 57 56
48 45 45 46 44 44 47 51 52 53 55 61 73 86 95 98 98 99 100 100 100 99 99 99 99 100 100 98 98 97 96 96 96 95 91 88 85 81 79 80 84 88 90 88 86 85 86 86 85 83 80 79 80 82 82 80 78 76 75 74 73 71 69 68 68 68 73 79 81 78 76 77 76 72 68 67 68 67 64 64 65 63 61 62 62 63 63
46 44 45 47 47 47 48 51 53 55 57 59 64 75 88 96 97 97 98 99 99 97 97 97 97 97 98 97 98 98 97 95 94 93 91 89 86 84 82 82 83 86 89 88 85 83 84 86 86 85 82 81 81 81 81 79 78 77 78 77 76 73 71 71 70 67 67 74 80 81 78 76 77 78 78 76 75 75 72 70 69 68 66 65 66 67 69
47 46 46 48 50 50 49 51 53 55 58 60 61 64 76 89 96 97 97 98 98 97 97 97 95 93 92 93 95 96 96 94 92 88 86 84 82 81 81 81 80 82 85 87 86 84 83 84 87 87 86 84 84 84 83 81 78 77 76 77 76 73 72 73 75 73 70 71 76 80 79 76 75 80 85 85 83 80 75 71 70 70 68 66 67 70 74
50 47 45 46 50 52 52 52 52 52 56 61 61 59 64 78 90 96 97 97 97 97 96 96 95 94 92 90 90 92 93 92 89 86 83 81 79 77 76 76 75 76 79 83 86 87 86 86 88 90 90 89 87 84 84 84 81 78 75 75 74 73 72 71 72 72 73 74 76 78 79 77 76 78 83 87 87 84 78 73 73 72 70 68 70 73 78
50 47 44 45 50 53 53 52 51 50 53 60 63 60 58 64 77 89 96 97 98 98 98 96 96 96 95 92 90 89 89 88 86 83 81 79 77 75 74 73 72 72 73 75 78 83 87 89 89 90 92 92 90 86 83 83 83 81 79 77 75 74 73 73 72 72 73 74 74 74 76 77 76 76 79 84 88 88 85 82 79 77 76 77 80 83 86
50 47 45 45 49 52 51 51 50 49 50 55 59 59 56 55 62 76 90 96 98 98 99 98 97 96 96 95 94 91 88 86 84 80 78 79 78 75 73 72 71 71 71 71 71 74 79 83 86 87 90 92 92 89 86 83 82 82 81 79 77 76 74 73 73 73 73 73 73 73 74 74 74 74 76 80 84 87 87 86 84 83 82 84 88 91 93
50 49 46 43 44 48 50 50 49 47 48 51 52 53 53 51 53 62 78 90 96 97 98 98 98 97 97 97 97 95 92 89 86 82 80 81 81 77 74 71 70 70 70 70 70 69 71 73 76 79 82 86 89 89 86 82 80 80 80 79 78 77 76 74 74 73 73 72 72 72 72 73 73 74 76 79 83 85 84 81 81 83 83 84 86 90 91
51 51 49 45 43 47 51 52 50 47 46 46 47 49 53 54 52 54 65 80 91 96 98 98 98 98 97 96 96 96 96 94 92 89 86 84 82 79 76 74 72 71 70 70 70 69 68 68 69 71 73 76 81 84 84 82 79 77 78 78 78 78 77 76 75 74 73 73 72 71 71 72 72 73 74 77 80 83 82 79 78 78 80 81 84 86 88
52 53 53 49 45 46 48 50 49 47 44 42 43 48 54 58 57 54 57 67 79 90 97 98 97 97 97 95 95 95 95 95 95 94 92 88 85 82 79 76 73 72 71 71 71 70 68 67 66 66 65 67 70 74 78 79 79 77 76 76 77 78 78 78 78 77 76 75 73 73 72 72 72 72 73 74 76 78 80 79 78 77 76 75 76 79 81
52 53 53 50 48 47 47 47 48 48 47 46 44 46 51 57 58 56 55 56 64 76 89 96 98 98 97 95 94 93 94 95 96 96 95 93 89 84 80 76 73 71 70 70 70 69 68 65 63 62 61 60 61 64 67 71 73 74 75 75 76 76 77 76 77 77 78 77 76 75 74 73 73 72 72 73 74 75 76 79 79 79 77 77 78 80 81
52 53 52 51 51 50 48 47 47 49 49 48 47 47 50 55 57 56 54 52 54 63 75 88 96 99 98 96 95 94 93 94 95 95 95 94 90 85 81 78 75 72 70 68 66 64 63 61 60 60 58 57 56 56 57 60 62 65 68 70 72 74 75 75 75 75 75 75 75 74 74 73 73 72 72 71 71 72 73 77 81 83 84 86 89 91 91
52 53 52 53 54 53 50 49 49 49 49 48 47 48 50 52 54 55 56 55 56 58 64 75 88 97 98 97 97 97 95 93 93 92 92 92 91 88 86 85 82 78 76 73 69 66 64 61 60 58 58 56 55 53 51 51 52 53 56 58 61 64 67 70 71 71 71 71 71 71 71 71 71 73 73 75 76 77 78 80 84 86 87 88 89 90 90
53 52 52 53 54 54 52 52 51 51 51 50 48 47 48 50 53 57 60 61 60 60 60 63 73 85 94 98 98 98 97 96 94 92 91 91 91 91 90 90 88 85 83 80 76 73 70 68 66 63 61 60 58 56 53 51 50 50 51 52 53 54 56 58 59 61 62 64 65 66 68 69 71 73 75 77 79 81 82 83 84 85 85 85 86 85 85